Location: Csohesd
(46.2500°N, 22.6167°E)
Time: 04:07:09
(UTC+00:00)

Cosmos 1125 Rocket - Pass Details

Date: 21 October 2021
Orbit: 758 x 779 km, 74.0° (Epoch: 30 November)

Event Time Altitude Azimuth Distance (km) Brightness Sun altitude
Rises 16:12:48 0° 207° (SSW) 3,233 7.3 -7.7°
Reaches altitude 10° 16:15:12 10° 210° (SSW) 2,307 6.5 -8.1°
Maximum altitude 16:20:25 69° 293° (WNW) 822 3.9 -9.0°
Drops below altitude 10° 16:25:38 10° 18° (NNE) 2,309 5.8 -9.9°
Sets 16:28:02 0° 20° (NNE) 3,237 6.5 -10.3°
